Location: Multiple Mirror Telescope
(31.6889°N, 110.8853°W)
Time: 05:52:39
(UTC-07:00)

ISS - Visible Passes

Search period start: 05 December 2023 00:00
Search period end: 15 December 2023 00:00
Orbit: 415 x 417 km, 51.6° (Epoch: 05 December)

Date Brightness Start Highest point End Pass type
(mag) Time Alt. Az. Time Alt. Az. Time Alt. Az.
05 Dec -3.2 18:03:10 10° NNW 18:06:19 37° NE 18:09:27 10° ESE visible
05 Dec -0.6 19:40:55 10° W 19:42:36 14° WSW 19:42:36 14° WSW visible
06 Dec -1.6 18:51:23 10° WNW 18:54:16 27° SW 18:57:09 10° S visible
07 Dec -3.1 18:02:22 10° NW 18:05:39 57° SW 18:08:55 10° SSE visible
09 Dec -0.5 18:02:24 10° W 18:04:32 16° SW 18:06:38 10° SSW visible
13 Dec -0.6 06:37:20 10° S 06:39:52 20° SE 06:42:25 10° ENE visible
14 Dec 0.0 05:50:35 10° SE 05:50:57 10° SE 05:51:19 10° ESE visible
